Regional Weather Roundup
Issued by NWS Charleston, SC

Current Version | Previous Version | Graphics & Text | Print | Product List | Glossary On
Versions: 1 2 3 4 5 6 7 8 9 10 11 12 13 14 15 16 17 18 19 20 21 22 23 24 25 26 27 28 29 30 31 32 33 34 35 36 37 38 39 40 41 42 43 44 45 46 47 48 49 50
000 ASUS42 KCHS 021212 RWRCHS REGIONAL WEATHER ROUNDUP NATIONAL WEATHER SERVICE CHARLESTON SC 800 AM EDT SUN AUG 02 2015 NOTE: "FAIR" INDICATES FEW OR NO CLOUDS BELOW 12,000 FEET WITH NO SIGNIFICANT WEATHER AND/OR OBSTRUCTIONS TO VISIBILITY. NOT ALL STATIONS ARE QUALITY CONTROLLED BY THE NATIONAL WEATHER SERVICE. USE DATA WITH CAUTION...ESPECIALLY DEWPOINT OBSERVATIONS. SCZ027-030-031-034>040-042>050-021300- ...SOUTHEAST SOUTH CAROLINA... CITY SKY/WX TMP DP RH WIND PRES REMARKS N CHARLESTON MOSUNNY 79 76 90 NE3 29.92S 6HR MIN TEMP: 74; 6HR MAX TEMP: 79; WATERFRONT PRK N/A 81 77 88 CALM 29.89S MOUNT PLEASANT LGT RAIN 75 73 94 CALM 29.92S JOHNS ISLAND FAIR 81 77 89 CALM 29.92S PINOPOLIS NOT AVBL MONCKS CORNER FAIR 75 72 88 CALM 29.93S FOG SUMMERVILLE FAIR 73 73 100 CALM 29.94R BEAUFORT MCAS MOSUNNY 78 75 90 W3 29.92S 6HR MIN TEMP: 75; 6HR MAX TEMP: 78; BEAUFORT ARPT FAIR 77 77 100 CALM 29.91S HILTON HEAD IS PTSUNNY 77 73 88 CALM 29.93S WALTERBORO FOG 77 73 88 NE3 29.93S VSB 1/2 ALLENDALE FOG 73 73 100 CALM 29.92S VSB 1/4 ...SOUTHERN MIDLANDS AND PEE DEE... CITY SKY/WX TMP DP RH WIND PRES REMARKS GEORGETOWN NOT AVBL KINGSTREE NOT AVBL ORANGEBURG FOG 75 74 96 E3 29.94R VSB 1/4 6HR MIN TEMP: 75; 6HR MAX TEMP: 76; BARNWELL FOG 75 75 100 CALM 29.94R VSB 1/2 AIKEN FOG 70 70 100 CALM 29.98R VSB 1/2 MANNING HVY RAIN 73 73 100 CALM 29.94R COLUMBIA PTSUNNY 77 72 84 E3 29.93R HAZE 6HR MIN TEMP: 75; 6HR MAX TEMP: 78; SUMTER CLOUDY 75 73 94 S3 29.92R FOG 6HR MIN TEMP: 73; 6HR MAX TEMP: 76; FLORENCE SUNNY 77 73 87 N6 29.93S 6HR MIN TEMP: 74; 6HR MAX TEMP: 77; MYRTLE BEACH MOSUNNY 77 72 83 NW7 29.95S N MYRTLE BEACH CLOUDY 77 74 90 CALM 29.94R 6HR MIN TEMP: 74; 6HR MAX TEMP: 77; $$ GAZ063-065-086>088-099>101-113>116-118-119-134>141-150-021300- ...SOUTHEAST GEORGIA... CITY SKY/WX TMP DP RH WIND PRES REMARKS SAVANNAH ARPT PTSUNNY 77 73 87 CALM 29.91F 6HR MIN TEMP: 76; 6HR MAX TEMP: 78; HUNTER AAF MOSUNNY 77 77 99 CALM 29.89S 6HR MIN TEMP: 76; 6HR MAX TEMP: 78; 6HR PCP: TRACE; FORT STEWART NOT AVBL STATESBORO CLOUDY 75 32 21 CALM 29.92S HAZE SYLVANIA FOG 75 75 100 CALM 29.93S VSB 1/2 CLAXTON NOT AVBL ...CSRA...CENTRAL AND FAR SOUTHEAST GEORGIA... CITY SKY/WX TMP DP RH WIND PRES REMARKS THOMSON MOSUNNY 76 75 99 CALM 29.98R AUGUSTA-BUSH FOG 74 74 100 SE3 29.93R VSB<1/4 6HR MIN TEMP: 72; 6HR MAX TEMP: 74; AUGUSTA-DANIEL CLOUDY 76 73 91 CALM 29.94S FOG SWAINSBORO CLOUDY N/A N/A N/A E3 29.93S FOG VIDALIA CLOUDY 75 73 94 CALM 29.91S EASTMAN CLOUDY 75 75 100 CALM 29.94R FOG HAZLEHURST CLOUDY 77 77 100 CALM 29.89S ALMA CLOUDY 76 73 91 SE5 29.89R 6HR MIN TEMP: 76; 6HR MAX TEMP: 78; WAYCROSS CLOUDY 78 76 92 SE3 29.90R JESUP CLOUDY 79 75 89 CALM 29.90S BAXLEY CLOUDY 77 75 94 CALM 29.89S BRUNSWICK CLOUDY 79 72 78 S7 29.92R SAINT SIMONS PTSUNNY 77 72 84 S6 29.91R 6HR MIN TEMP: 76; 6HR MAX TEMP: 79; 6HR PCP: TRACE; $$ SCZ027-028-034-036>038-045-046-048>050-GAZ119-141-021300- ...LAKE AND SUPPLEMENTAL COASTAL OBSERVATIONS... STATION/POSITION TIME TEMP WIND PRES WAVE SWELL AIR SEA DIR/SP/G HT/PER HT/PER/DIR (UTC) (F) (DEG/KT/KT) (MB) (FT/S) (FT/S/D) UPR LAKE MARION NOT AVBL WINYAH BAY 1045 73 360/ 1 1012.0 LAKE MURRAY 1100 76 CALM / 3 1012.9R ACE BASIN NERRS NOT AVBL FORT PULASKI 1100 78 86 250/ 3/ 4 1013.3R SAPELO ISLAND 1100 78 210/ 4 1012.0S $$ ANZ835-935-AMZ111-154-330-350-352-354-370-450-454-472-021300- ...C-MAN AND BUOY OBSERVATIONS... STATION/POSITION TIME TEMP WIND PRES WAVE SWELL AIR SEA DIR/SP/G HT/PER HT/PER/DIR (UTC) (F) (DEG/KT/KT) (MB) (FT/S) (FT/S/D) BUOY 41004 1150 81 84 240/ 6/ 8 1012.9R 4/ 7 3/ 7 BUOY 41008 1150 80 83 190/ 12/ 14 1012.7R 4/ 6 3/150/ 6 FOLLY BEACH CMAN 1100 81 250/ 3/ 5 1013.2R CAPERS NEARSHORE 1108 82 230/ 6/ 10 1013.0R FRIPP NEARSHORE 1100 80 230/ 8/ 10 1012.6R STATION/POSITION TIME TEMP WIND PRES WAVE SWELL AIR SEA DIR/SP/G HT/PER HT/PER/DIR (UTC) (F) (DEG/KT/KT) (MB) (FT/S) (FT/S/D) 5E ST. MARYS GA 1121 83 N/A 4/ 6 FRYING PAN BUOY 1150 82 82 300/ 6/ 8 1013.8R 5/ 7 5/170/ 7 BUOY 41025 1150 81 85 270/ 8/ 10 1013.1R 3/ 7 3/170/ 7 CAPE LOOKOUT NC 1100 80 280/ 8/ 9 1012.6R BUOY 41002 1150 83 81 220/ 16/ 17 1015.5F 6/ 7 3/260/ 8 BUOY 41010 1120 82 83 170/ 16/ 17 1014.9R ST AUGUSTINE FL 1200 75 79 190/ 13/ 16 1013.6R $$

USA.gov is the U.S. government's official web portal to all federal, state and local government web resources and services.